HB6TJ LSZA-LSZR

Flight info

Callsign HB6TJ
Flight time N/A
Altitude 22000
Route CANNE Z651 KESEX Z653 ROLSA
Aircraft TBM8/L-SDFGRWY/S

Departure

Time 2026-04-29 07:44
Airport Lugano Airport (LSZA)

Arrival

Time N/A
Airport Sankt Gallen Altenrhein Airport (LSZR)
Time Latitude Longitude Altitude Speed Heading
2026-04-29 07:26 46.00236 8.90803 898 ft 0 kts 199°
2026-04-29 07:38 46.00217 8.90796 898 ft 0 kts 186°
2026-04-29 07:38 46.00210 8.90795 898 ft 5 kts 184°
2026-04-29 07:38 46.00169 8.90792 898 ft 0 kts 179°
2026-04-29 07:39 46.00160 8.90796 898 ft 7 kts 149°
2026-04-29 07:40 46.00150 8.90812 898 ft 2 kts 121°
2026-04-29 07:40 46.00148 8.90818 898 ft 2 kts 84°
2026-04-29 07:40 46.00148 8.90825 898 ft 0 kts 82°
2026-04-29 07:42 46.00147 8.90845 897 ft 8 kts 95°
2026-04-29 07:42 46.00113 8.90911 898 ft 12 kts 196°
2026-04-29 07:42 46.00024 8.90859 900 ft 16 kts 196°
2026-04-29 07:42 45.99988 8.90848 901 ft 3 kts 25°
2026-04-29 07:43 45.99996 8.90849 901 ft 0 kts 11°
2026-04-29 07:43 46.00027 8.90864 900 ft 27 kts 19°
2026-04-29 07:43 46.00439 8.91059 963 ft 85 kts 17°
2026-04-29 07:43 46.01078 8.91362 1317 ft 108 kts 19°
2026-04-29 07:44 46.01822 8.91728 1776 ft 130 kts 19°
2026-04-29 07:44 46.02795 8.92204 2135 ft 156 kts 20°
2026-04-29 07:44 46.03778 8.92718 3014 ft 146 kts 19°
2026-04-29 07:44 46.04714 8.93196 3831 ft 139 kts 21°
2026-04-29 07:45 46.05631 8.93733 4410 ft 151 kts 21°
2026-04-29 07:45 46.06404 8.94643 5078 ft 149 kts 81°
2026-04-29 07:45 46.06070 8.96060 5429 ft 173 kts 140°
2026-04-29 07:45 46.04851 8.96145 5620 ft 196 kts 206°
2026-04-29 07:46 46.03778 8.95108 6488 ft 179 kts 219°
2026-04-29 07:46 46.02803 8.93981 6947 ft 175 kts 221°
2026-04-29 07:46 46.01981 8.92919 7796 ft 154 kts 224°
2026-04-29 07:46 46.01199 8.91835 8291 ft 155 kts 222°
2026-04-29 07:47 46.00409 8.90804 8762 ft 160 kts 219°
2026-04-29 07:47 45.99406 8.89961 9111 ft 167 kts 202°
2026-04-29 07:47 45.98272 8.89555 9614 ft 169 kts 194°
2026-04-29 07:47 45.97050 8.89232 9843 ft 184 kts 192°
2026-04-29 07:48 45.95789 8.88919 10248 ft 184 kts 189°
2026-04-29 07:48 45.94540 8.88488 10689 ft 181 kts 199°
2026-04-29 07:48 45.93378 8.87906 11176 ft 176 kts 203°
2026-04-29 07:48 45.92234 8.87223 11562 ft 180 kts 206°
2026-04-29 07:49 45.91094 8.86490 12065 ft 175 kts 206°
2026-04-29 07:49 45.90332 8.86060 12290 ft 182 kts 199°
2026-04-29 07:49 45.88612 8.85372 12596 ft 197 kts 197°
2026-04-29 07:49 45.87239 8.84895 12306 ft 208 kts 195°
2026-04-29 07:50 45.86212 8.84539 11729 ft 244 kts 195°
2026-04-29 07:50 45.84553 8.84176 12193 ft 218 kts 187°
2026-04-29 07:50 45.82860 8.83987 13268 ft 262 kts 224°
2026-04-29 07:50 45.81468 8.82309 12511 ft 256 kts 213°
2026-04-29 07:51 45.80241 8.81595 11893 ft 262 kts 181°
2026-04-29 07:51 45.78551 8.81926 10658 ft 234 kts 166°
2026-04-29 07:51 45.76800 8.82959 8779 ft 278 kts 153°
2026-04-29 07:51 45.75393 8.84584 8342 ft 243 kts 134°
2026-04-29 07:52 45.74491 8.86388 8399 ft 194 kts 122°
2026-04-29 07:52 45.73801 8.88123 7160 ft 225 kts 122°
2026-04-29 07:52 45.72901 8.90028 5988 ft 232 kts 129°
2026-04-29 07:52 45.71908 8.91620 5592 ft 162 kts 133°
2026-04-29 07:53 45.71191 8.92382 5190 ft 117 kts 161°
2026-04-29 07:53 45.70390 8.92402 4468 ft 118 kts 187°
2026-04-29 07:53 45.69710 8.91866 4063 ft 106 kts 231°
2026-04-29 07:53 45.69618 8.90709 3532 ft 138 kts 281°
2026-04-29 07:54 45.70046 8.89642 2907 ft 127 kts 332°
2026-04-29 07:54 45.70865 8.89207 1984 ft 133 kts 345°
2026-04-29 07:54 45.72257 8.89187 3123 ft 261 kts
2026-04-29 07:54 45.73862 8.89552 3081 ft 177 kts 14°
2026-04-29 07:55 45.74734 8.89949 3068 ft 100 kts 29°
2026-04-29 07:55 45.75292 8.90271 2758 ft 80 kts
2026-04-29 07:55 45.75316 8.89469 1880 ft 122 kts 245°
2026-04-29 07:55 45.74773 8.88749 1135 ft 98 kts 172°
2026-04-29 07:56 45.74296 8.88812 1106 ft 53 kts 176°
2026-04-29 07:56 45.74480 8.88785 1112 ft 0 kts 176°